FW4256 Weather Reports


time (UTC)temp
C
wind
direction
speed
KPH
gust
KPH
rain 1hr
cm
rain 24hr
cm
rain mn
cm
humidity
%
barometer
mb
20260504081526 7 360 0.0 1.6 0.00 0.00 0.00 65 1004.4
20260504050004 6 360 1.6 3.2 0.00 0.00 0.00 68 1003.8
20260504044501 7 360 0.0 3.2 0.00 0.00 0.00 65 1003.8
20260504043105 7 360 0.0 1.6 0.00 0.00 0.00 60 1003.9
20260504041600 8 360 0.0 1.6 0.00 0.00 0.00 56 1003.8
20260504040052 8 360 0.0 3.2 0.00 0.00 0.00 53 1003.7
20260504034556 8 360 0.0 3.2 0.00 0.00 0.00 53 1003.7
20260504033057 8 360 0.0 0.0 0.00 0.00 0.00 52 1003.8
20260504031602 9 360 0.0 1.6 0.00 0.00 0.00 51 1003.7
20260504030110 9 360 0.0 1.6 0.00 0.00 0.00 50 1003.7
20260504024551 9 360 0.0 3.2 0.00 0.00 0.00 51 1003.6
20260504023048 9 360 0.0 1.6 0.00 0.00 0.00 49 1003.5
20260504021548 10 360 0.0 3.2 0.00 0.00 0.00 48 1003.6
20260504020047 10 360 0.0 4.8 0.00 0.00 0.00 47 1003.6
20260504014546 10 360 0.0 6.4 0.00 0.00 0.00 46 1003.5
20260504013049 10 360 1.6 8.0 0.00 0.00 0.00 45 1003.4
20260504011545 10 360 1.6 4.8 0.00 0.00 0.00 45 1003.3
20260504010044 10 360 1.6 3.2 0.00 0.00 0.00 43 1003.1
20260504004544 11 360 0.0 6.4 0.00 0.00 0.00 41 1002.8
20260504003046 11 360 1.6 14.5 0.00 0.00 0.00 39 1002.7
20260504001543 11 360 1.6 4.8 0.00 0.00 0.00 37 1002.4
20260504000101 12 360 1.6 4.8 0.00 0.00 0.00 37 1002.3
20260503234540 -17 0.0 0.0 0.00 0.00 0.00 1002.2
20260503233040 12 360 1.6 8.0 0.00 0.00 0.00 35 1001.9
20260503231534 -17 0.0 0.0 0.00 0.00 0.00 1001.8
20260503224530 13 360 3.2 12.9 0.00 0.00 0.00 33 1001.4
20260503223027 15 360 3.2 17.7 0.00 0.00 0.00 31 1001.5
20260503221527 15 360 4.8 16.1 0.00 0.00 0.00 34 1001.5
20260503220027 15 360 3.2 22.5 0.00 0.00 0.00 34 1001.3
20260503214525 15 360 3.2 9.7 0.00 0.00 0.00 33 1001.4
20260503213023 14 360 1.6 8.0 0.00 0.00 0.00 36 1001.4
20260503211523 13 360 4.8 14.5 0.00 0.00 0.00 36 1001.3
20260503210022 13 360 3.2 12.9 0.00 0.00 0.00 38 1001.5
20260503204522 14 360 4.8 14.5 0.00 0.00 0.00 37 1001.3
20260503203024 14 360 6.4 17.7 0.00 0.00 0.00 38 1001.5
20260503201518 13 360 4.8 16.1 0.00 0.00 0.00 40 1001.5
20260503200014 12 360 6.4 24.1 0.00 0.00 0.00 41 1001.6
20260503194613 12 360 4.8 32.2 0.00 0.00 0.00 40 1001.8
20260503193012 13 360 6.4 25.7 0.00 0.00 0.00 40 1001.9
20260503191511 12 360 4.8 20.9 0.00 0.00 0.00 38 1001.9
20260503190008 11 360 6.4 27.4 0.00 0.00 0.00 43 1002.0
20260503184513 11 360 6.4 19.3 0.00 0.00 0.00 41 1001.9
20260503183007 11 360 4.8 17.7 0.00 0.00 0.00 41 1002.0
20260503181507 11 360 4.8 24.1 0.00 0.00 0.00 42 1001.9
20260503180006 11 360 6.4 20.9 0.00 0.00 0.00 41 1001.9
20260503174507 11 360 6.4 20.9 0.00 0.00 0.00 41 1001.8
20260503173006 12 360 6.4 12.9 0.00 0.00 0.00 44 1001.7
20260503171501 11 360 6.4 17.7 0.00 0.00 0.00 42 1002.0
20260503170107 10 360 4.8 22.5 0.00 0.00 0.00 44 1001.9